User: anonymous   Login
Location: Goheenville
(40.9070°N, 79.3720°W)
Time: 09:31:33
(UTC-04:00)
Language:

Cosmos 1727 Rocket - Orbit

View from above orbital plane
View from above orbital plane
View from above satellite
View from above satellite

Ground track
Ground track

The orbit data is extracted from the following two-line orbital elements,

1 16511U 86008B   17265.19658942  .00000080  00000-0  66836-4 0  9992
2 16511  82.9455 147.9932 0024701  14.7383 101.6204 13.75815370589617
Epoch (UTC): 22 September 2017 04:43:05
Eccentricity: 0.0024701
inclination: 82.9455°
perigee height: 960 km
apogee height: 997 km
right ascension of ascending node: 147.9932°
argument of perigee: 14.7383°
revolutions per day: 13.75815370
mean anomaly at epoch: 101.6204°
orbit number at epoch: 58961

The dashed part of the orbit path shows where the satellite is in the earth's shadow,  

DLR